TimeHST,TemperatureF,Dew PointF,Humidity,Sea Level PressureIn,VisibilityMPH,Wind Direction,Wind SpeedMPH,Gust SpeedMPH,PrecipitationIn,Events,Conditions,WindDirDegrees,DateUTC
12:53 AM,73.0,55.0,53,30.13,10.0,ENE,18.4,34.5,N/A,,Partly Cloudy,60,2013-02-17 10:53:00
1:53 AM,72.0,55.9,57,30.12,10.0,ENE,26.5,33.4,N/A,,Scattered Clouds,60,2013-02-17 11:53:00
2:53 AM,72.0,57.9,61,30.10,10.0,ENE,17.3,26.5,N/A,,Partly Cloudy,60,2013-02-17 12:53:00
3:53 AM,72.0,57.9,61,30.09,10.0,ENE,19.6,-,N/A,,Partly Cloudy,60,2013-02-17 13:53:00
4:53 AM,72.0,57.0,59,30.08,10.0,ENE,17.3,-,N/A,,Partly Cloudy,60,2013-02-17 14:53:00
5:53 AM,73.0,59.0,61,30.10,10.0,ENE,16.1,24.2,N/A,,Scattered Clouds,60,2013-02-17 15:53:00
6:53 AM,72.0,60.1,66,30.12,10.0,ENE,21.9,33.4,N/A,,Scattered Clouds,60,2013-02-17 16:53:00
7:53 AM,73.0,57.9,59,30.14,10.0,ENE,23.0,32.2,N/A,,Mostly Cloudy,60,2013-02-17 17:53:00
8:53 AM,72.0,59.0,64,30.17,10.0,ENE,32.2,42.6,0.00,Rain,Light Rain,70,2013-02-17 18:53:00
9:53 AM,75.0,60.1,60,30.17,10.0,ENE,24.2,32.2,0.00,,Mostly Cloudy,70,2013-02-17 19:53:00
10:53 AM,79.0,57.9,48,30.16,10.0,NE,21.9,29.9,N/A,,Mostly Cloudy,50,2013-02-17 20:53:00
11:53 AM,79.0,57.9,48,30.15,10.0,NE,20.7,32.2,N/A,,Mostly Cloudy,50,2013-02-17 21:53:00
12:53 PM,80.1,55.0,42,30.12,10.0,ENE,24.2,33.4,N/A,,Scattered Clouds,60,2013-02-17 22:53:00
1:53 PM,79.0,57.9,48,30.09,10.0,NE,26.5,40.3,N/A,,Scattered Clouds,50,2013-02-17 23:53:00
2:53 PM,79.0,57.9,48,30.08,10.0,NNE,23.0,34.5,N/A,,Scattered Clouds,30,2013-02-18 00:53:00
3:53 PM,79.0,57.9,48,30.08,10.0,NE,21.9,32.2,N/A,,Scattered Clouds,50,2013-02-18 01:53:00
4:53 PM,77.0,55.9,48,30.09,10.0,ENE,24.2,32.2,N/A,,Scattered Clouds,60,2013-02-18 02:53:00
5:53 PM,75.0,55.9,51,30.11,10.0,ENE,19.6,29.9,N/A,,Scattered Clouds,60,2013-02-18 03:53:00
7:53 PM,73.9,59.0,59,30.15,10.0,ENE,19.6,26.5,N/A,,Mostly Cloudy,60,2013-02-18 05:53:00
8:53 PM,73.0,57.0,57,30.17,10.0,ENE,19.6,29.9,N/A,,Scattered Clouds,60,2013-02-18 06:53:00
9:53 PM,73.0,57.9,59,30.18,10.0,NE,20.7,27.6,0.00,,Scattered Clouds,50,2013-02-18 07:53:00
10:53 PM,73.0,57.9,59,30.17,10.0,ENE,21.9,28.8,N/A,,Scattered Clouds,60,2013-02-18 08:53:00
11:53 PM,72.0,57.0,59,30.15,10.0,NE,23.0,32.2,N/A,,Scattered Clouds,40,2013-02-18 09:53:00